This demonstration page uses our WeatherBlox Daily Observations layout. Learn more.

Left ArrowRight Arrow

34.74481, -87.66753

Hourly Observations for August 5, 2015

Temp ( °F °C ) Dew Point ( °F °C ) Humidity (%) Winds ( mph kmh ) Pressure ( in mb ) Visibility ( mi km ) Precip ( " mm )
12:53 am 00:53 Clear 77 25 71 21.7 82 82 Calm 29.99 1016 10 16 0.00 0.00
1:53 am 01:53 Partly Cloudy 77 25 71 21.7 82 82 Calm 29.98 1015 10 16 0.00 0.00
2:53 am 02:53 Clear 76 24.4 71 21.7 85 85 Calm 29.98 1015 10 16 0.00 0.00
3:53 am 03:53 Clear 75 23.9 71 21.7 88 88 Calm 29.99 1016 10 16 0.00 0.00
4:53 am 04:53 Clear 74 23.3 70 21.1 88 88 Calm 29.98 1015 10 16 0.00 0.00
5:53 am 05:53 Clear 74 23.3 70 21.1 88 88 Calm 29.98 1015 10 16 0.00 0.00
6:53 am 06:53 Sunny 75 23.9 70 21.1 84 84 SE 6 9 30.00 1016 10 16 0.00 0.00
7:53 am 07:53 Sunny 80 26.7 69 20.6 69 69 S 3 6 30.01 1016 10 16 0.00 0.00
8:53 am 08:53 Sunny 82 27.8 70 21.1 67 67 ESE 5 7 30.00 1016 10 16 0.00 0.00
9:53 am 09:53 Sunny 85 29.4 69 20.6 59 59 W 3 6 30.00 1016 10 16 0.00 0.00
10:53 am 10:53 Sunny 92 33.3 69 20.6 47 47 Calm 30.00 1016 10 16 0.00 0.00
11:53 am 11:53 Sunny 92 33.3 72 22.2 52 52 NNW 5 7 29.99 1016 10 16 0.00 0.00
12:53 pm 12:53 Mostly Sunny 94 34.4 68 20 43 43 W 8 13 29.98 1015 10 16 0.00 0.00
1:53 pm 13:53 Partly Cloudy 97 36.1 66 18.9 36 36 WSW 9 15 29.95 1014 10 16 0.00 0.00
2:53 pm 14:53 Sunny 99 37.2 61 16.1 29 29 W 13 20 29.92 1013 10 16 0.00 0.00
3:53 pm 15:53 Mostly Sunny 98 36.7 61 16.1 29 29 W 7 11 29.91 1013 10 16 0.00 0.00
4:53 pm 16:53 Sunny 97 36.1 62 16.7 32 32 W 13 20 29.91 1013 10 16 0.00 0.00
5:53 pm 17:53 Mostly Cloudy 86 30 66 18.9 51 51 NNW 12 19 29.94 1014 10 16 0.00 0.00
5:59 pm 17:59 Mostly Cloudy with Thunderstorms 85 29.4 67 19.4 55 55 NW 10 17 29.94 1014 10 16 0.00 0.00
6:53 pm 18:53 Mostly Cloudy with Light Rain 77 25 72 22.2 85 85 VRB 5 7 29.97 1015 10 16 0.03 0.76
7:45 pm 19:45 Cloudy with Thunderstorms 75 23.9 71 21.7 88 88 WNW 21 33 30.03 1017 10 16 0.05 1.27
7:53 pm 19:53 Cloudy with Thunderstorms 75 23.9 71 21.7 88 88 WNW 18 30 30.05 1018 10 16 0.05 1.27
8:00 pm 20:00 Cloudy with Thunderstorms 75 23.9 70 21.1 84 84 W 18 30 30.03 1017 10 16 0.00 0.03
8:25 pm 20:25 Cloudy with Nearby Thunderstorms 73 22.8 70 21.1 90 90 E 5 7 30.00 1016 10 16 0.11 2.79
8:38 pm 20:38 Mostly Cloudy with Rain 73 22.8 70 21.1 90 90 SSE 5 7 29.97 1015 10 16 0.14 3.56
8:53 pm 20:53 Mostly Cloudy with Light Rain 73 22.8 70 21.1 90 90 Calm 29.98 1015 10 16 0.15 3.81
9:53 pm 21:53 Mostly Clear 73 22.8 70 21.1 90 90 SSE 5 7 29.95 1014 10 16 0.02 0.51
10:53 pm 22:53 Partly Cloudy 72 22.2 69 20.6 91 91 ESE 6 9 29.91 1013 10 16 0.00 0.00
11:53 pm 23:53 Clear 71 21.7 69 20.6 94 94 ESE 5 7 29.92 1013 10 16 0.00 0.00

Powered by AerisWeather